Canadian, TX

10:50 AM CST on December 07, 2019 (GMT -0600)
Hemphill County

Weather History for KHHF - October, 2019

Change the Weather History Date:

Saturday, October 5, 2019

  Actual Average (WUND) Record (WUND)
Temperature  
Mean Temperature 67 °F -  
Max Temperature 77 °F - - (-1)
Min Temperature 57 °F - - (-1)
Cooling Degree Days 2    
Growing Degree Days 17 (Base 50)    
Moisture  
Dew Point 56 °F    
Average Humidity 66    
Maximum Humidity 95    
Minimum Humidity 28    
Precipitation  
Precipitation 0.07 in - - ()
Sea Level Pressure  
Sea Level Pressure 30.02 in    
Wind  
Wind Speed 11 mph (NE)    
Max Wind Speed 17 mph    
Max Gust Speed 24 mph    
Visibility 10 miles    
Events Rain    
Averages and records for this station are not official NWS values.
T = Trace of Precipitation, MM = Missing Value Source: NWS Daily Summary

Daily Weather History Graph

Daily Weather History Graph

Search for Another Location

Airport or City:

Astronomy

Oct. 05, 2019 Rise Set
Actual Time 7:39 AM CDT 7:19 PM CDT
Civil Twilight 7:14 AM CDT 7:45 PM CDT
Nautical Twilight 6:44 AM CDT 8:14 PM CDT
Astronomical Twilight 6:14 AM CDT 8:44 PM CDT
Moon 2:56 PM CDT (10/5) 12:02 AM CDT (10/5)
Length of Visible Light 12h 31m
Length of Day
11h 40m
Waxing Crescent, 50% of the Moon is Illuminated
Oct 5
Waxing Crescent
Oct 13
Full
Oct 21
Last Quarter
Oct 27
New
Nov 4
First Quarter

Hourly Weather History & Observations

Time (CDT) Temp. Dew Point Humidity Pressure Visibility Wind Dir Wind Speed Gust Speed Precip Events Conditions
12:15 AM 67.6 °F 64.2 °F 89% 30.04 in 10.0 mi South 11.5 mph 18.4 mph N/A Rain Light Rain
12:35 AM 67.8 °F 64.4 °F 89% 30.03 in 10.0 mi South 15.0 mph 20.7 mph N/A   Mostly Cloudy
12:55 AM 67.8 °F 64.6 °F 89% 30.04 in 7.0 mi SSW 17.3 mph 24.2 mph 0.03 in Rain Heavy Rain
1:15 AM 67.1 °F 64.9 °F 93% 30.03 in 10.0 mi South 9.2 mph - 0.04 in   Overcast
1:35 AM 66.4 °F 64.8 °F 95% 30.02 in 10.0 mi SSW 8.1 mph - 0.04 in   Overcast
1:55 AM 66.2 °F 64.6 °F 94% 30.01 in 10.0 mi SSW 10.4 mph - 0.04 in   Scattered Clouds
2:15 AM 67.1 °F 64.6 °F 92% 30.00 in 10.0 mi SSW 13.8 mph 20.7 mph N/A   Clear
2:35 AM 67.5 °F 64.9 °F 92% 30.01 in 10.0 mi SSW 12.7 mph 21.9 mph N/A   Clear
2:55 AM 67.5 °F 64.6 °F 90% 30.00 in 10.0 mi SSW 15.0 mph 23.0 mph N/A   Scattered Clouds
3:15 AM 68.0 °F 64.8 °F 89% 29.99 in 10.0 mi SSW 13.8 mph 23.0 mph N/A   Scattered Clouds
3:35 AM 68.0 °F 65.3 °F 91% 29.99 in 10.0 mi SSW 15.0 mph 20.7 mph N/A   Clear
3:55 AM 67.5 °F 64.8 °F 91% 29.99 in 10.0 mi SSW 13.8 mph 18.4 mph N/A   Scattered Clouds
4:15 AM 67.5 °F 65.3 °F 93% 29.98 in 10.0 mi SW 9.2 mph - N/A   Scattered Clouds
4:35 AM 67.5 °F 65.3 °F 93% 29.98 in 10.0 mi SW 10.4 mph - N/A   Clear
4:55 AM 67.5 °F 65.3 °F 93% 29.98 in 10.0 mi SW 10.4 mph - N/A   Clear
5:20 AM 67.5 °F 65.3 °F 93% 29.98 in 10.0 mi SSW 10.4 mph 17.3 mph N/A   Clear
5:55 AM 67.5 °F 64.8 °F 91% 29.99 in 10.0 mi SW 9.2 mph - N/A   Clear
6:15 AM 67.6 °F 64.6 °F 90% 30.01 in 10.0 mi SW 8.1 mph - N/A   Clear
6:35 AM 66.2 °F 64.4 °F 94% 30.01 in 10.0 mi SW 9.2 mph - N/A   Clear
6:55 AM 66.2 °F 64.0 °F 93% 30.01 in 10.0 mi SW 5.8 mph - N/A   Clear
7:15 AM 65.7 °F 63.9 °F 94% 30.00 in 10.0 mi SW 6.9 mph - N/A   Clear
7:35 AM 66.2 °F 64.0 °F 93% 30.00 in 10.0 mi SW 6.9 mph - N/A   Clear
7:55 AM 66.2 °F 64.0 °F 93% 29.99 in 10.0 mi SSW 8.1 mph - N/A   Clear
8:15 AM 66.2 °F 64.0 °F 93% 29.99 in 10.0 mi SW 5.8 mph - N/A   Clear
8:35 AM 67.3 °F 64.8 °F 92% 29.99 in 10.0 mi SSW 9.2 mph - N/A   Clear
8:55 AM 68.9 °F 65.3 °F 88% 29.99 in 10.0 mi SSW 10.4 mph - N/A   Clear
9:15 AM 71.1 °F 65.7 °F 83% 29.99 in 10.0 mi SW 10.4 mph - N/A   Clear
9:35 AM 72.7 °F 65.7 °F 79% 29.99 in 10.0 mi SW 12.7 mph 16.1 mph N/A   Scattered Clouds
9:55 AM 75.2 °F 65.1 °F 71% 30.00 in 10.0 mi WSW 12.7 mph 19.6 mph N/A   Clear
10:15 AM 75.6 °F 64.9 °F 69% 30.03 in 10.0 mi NW 10.4 mph - N/A   Scattered Clouds
10:35 AM 75.2 °F 65.3 °F 71% 30.04 in 10.0 mi NNW 12.7 mph - N/A   Mostly Cloudy
10:55 AM 75.9 °F 65.3 °F 70% 30.04 in 10.0 mi NW 11.5 mph 18.4 mph N/A   Mostly Cloudy
11:15 AM 75.2 °F 66.0 °F 73% 30.04 in 10.0 mi NW 12.7 mph - N/A   Scattered Clouds
11:35 AM 76.1 °F 66.2 °F 71% 30.04 in 10.0 mi NNW 11.5 mph - N/A   Mostly Cloudy
11:55 AM 73.6 °F 65.5 °F 76% 30.05 in 10.0 mi NNW 11.5 mph - N/A   Overcast
12:15 PM 72.5 °F 65.7 °F 79% 30.04 in 10.0 mi North 11.5 mph 16.1 mph N/A   Overcast
12:35 PM 72.9 °F 64.0 °F 74% 30.05 in 10.0 mi North 12.7 mph 16.1 mph N/A   Overcast
12:55 PM 72.9 °F 64.2 °F 74% 30.05 in 10.0 mi North 12.7 mph 17.3 mph N/A   Overcast
1:15 PM 72.9 °F 63.9 °F 73% 30.05 in 10.0 mi NNE 11.5 mph 17.3 mph N/A   Overcast
1:55 PM 74.7 °F 53.8 °F 48% 30.04 in 10.0 mi NE 11.5 mph - N/A   Overcast
2:15 PM 75.2 °F 50.7 °F 42% 30.03 in 10.0 mi NE 13.8 mph - N/A   Overcast
2:35 PM 76.1 °F 49.5 °F 39% 30.03 in 5.0 mi NE 15.0 mph 18.4 mph N/A   Haze
2:55 PM 77.0 °F 48.6 °F 37% 30.02 in 10.0 mi ENE 13.8 mph 17.3 mph N/A   Clear
3:15 PM 77.5 °F 46.2 °F 33% 30.02 in 10.0 mi NNE 13.8 mph 18.4 mph N/A   Clear
3:35 PM 77.4 °F 47.7 °F 35% 30.01 in 10.0 mi NE 12.7 mph 18.4 mph N/A   Clear
3:55 PM 77.5 °F 45.9 °F 33% 30.01 in 7.0 mi NE 13.8 mph 18.4 mph N/A   Clear
4:15 PM 77.5 °F 44.6 °F 31% 30.01 in 7.0 mi NNE 13.8 mph 18.4 mph N/A   Clear
4:35 PM 76.6 °F 42.3 °F 29% 30.01 in 10.0 mi NE 11.5 mph 19.6 mph N/A   Clear
4:55 PM 76.8 °F 43.0 °F 30% 30.01 in 10.0 mi NE 11.5 mph - N/A   Clear
5:15 PM 77.0 °F 42.6 °F 29% 30.01 in 10.0 mi NE 11.5 mph - N/A   Clear
5:35 PM 75.9 °F 40.8 °F 28% 30.01 in 10.0 mi NNE 11.5 mph - N/A   Clear
5:55 PM 75.4 °F 41.0 °F 29% 30.01 in 10.0 mi NE 10.4 mph - N/A   Clear
6:15 PM 75.2 °F 40.3 °F 28% 30.01 in 10.0 mi NE 12.7 mph - N/A   Clear
6:35 PM 73.4 °F 40.3 °F 30% 30.02 in 10.0 mi NNE 9.2 mph - N/A   Clear
6:55 PM 71.4 °F 40.5 °F 33% 30.02 in 10.0 mi NE 5.8 mph - N/A   Clear
7:15 PM 70.0 °F 41.0 °F 35% 30.03 in 10.0 mi NE 5.8 mph - N/A   Clear
7:35 PM 68.2 °F 40.6 °F 37% 30.03 in 10.0 mi NE 5.8 mph - N/A   Clear
7:55 PM 66.6 °F 41.5 °F 40% 30.03 in 1.2 mi NE 4.6 mph - N/A   Haze
8:15 PM 64.4 °F 42.8 °F 45% 30.03 in 10.0 mi ENE 3.5 mph - N/A   Clear
8:35 PM 63.7 °F 43.2 °F 47% 30.04 in 10.0 mi ENE 4.6 mph - N/A   Clear
8:55 PM 63.1 °F 42.8 °F 47% 30.04 in 10.0 mi ENE 4.6 mph - N/A   Clear
9:15 PM 64.4 °F 41.4 °F 43% 30.04 in 10.0 mi ENE 6.9 mph - N/A   Clear
9:35 PM 62.2 °F 42.6 °F 49% 30.04 in 10.0 mi East 5.8 mph - N/A   Clear
9:55 PM 61.5 °F 43.2 °F 51% 30.05 in 10.0 mi ENE 4.6 mph - N/A   Clear
10:15 PM 60.8 °F 43.5 °F 53% 30.04 in 10.0 mi East 4.6 mph - N/A   Clear
10:35 PM 59.9 °F 43.9 °F 55% 30.05 in 10.0 mi Calm Calm - N/A   Clear
10:55 PM 59.4 °F 44.4 °F 58% 30.05 in 10.0 mi Calm Calm - N/A   Clear
11:15 PM 59.0 °F 45.0 °F 60% 30.05 in 10.0 mi Calm Calm - N/A   Clear
11:35 PM 57.6 °F 45.5 °F 64% 30.05 in 10.0 mi Calm Calm - N/A   Clear
11:55 PM 57.4 °F 45.7 °F 65% 30.05 in 10.0 mi Calm Calm - N/A   Clear